Regional Weather Roundup
Issued by NWS

Home | Current Version | Previous Version | Graphics & Text | Print | Product List | Glossary On
Versions: 1 2 3 4 5 6 7 8 9 10 11 12 13 14 15 16 17 18 19 20 21 22 23 24 25 26 27 28 29 30 31 32 33 34 35 36 37 38 39 40 41 42 43 44 45 46 47 48 49 50
000
ASUS43 KDMX 250708
RWRIA

WEATHER ROUNDUP FOR IOWA
NATIONAL WEATHER SERVICE DES MOINES IA
200 AM CDT SUN SEP 25 2016

NOTE: "FAIR" INDICATES FEW OR NO CLOUDS BELOW 12,000 FEET WITH NO
SIGNIFICANT WEATHER AND/OR OBSTRUCTIONS TO VISIBILITY.

* - THESE STATIONS ARE NOT NWS STATIONS...THUS NOT UNDER NWS
QUALITY CONTROL.  THEY ALSO DO NOT REPORT WEATHER SUCH
AS PRECIPITATION OR FOG.

IAZ001>003-012>014-020>022-031>034-043>046-250800-
   NORTHWEST IOWA

CITY           SKY/WX    TMP DP  RH WIND       PRES   REMARKS
CARROLL *      CLOUDY    68  66  94 S8        29.97S
CHEROKEE *     RAIN      68  68  99 S9        29.95S
DENISON *      CLOUDY    68  66  94 SE9       29.93F FOG
LE MARS *      CLOUDY    68  66  94 S6        29.94S
ORANGE CITY *  LGT RAIN  64  63  94 S6        29.94R
SHELDON *      LGT RAIN  66  66 100 SE6       29.92S
SIOUX CITY     CLOUDY    69  68  96 S5        29.94R
SPENCER        CLOUDY    68  67  96 S12       29.94S
STORM LAKE *   CLOUDY    66  66 100 S7        29.97R
$$

IAZ055>058-069>071-079>083-090>094-250800-
   SOUTHWEST IOWA

CITY           SKY/WX    TMP DP  RH WIND       PRES   REMARKS
ATLANTIC *     CLOUDY    68  68 100 E5        29.94F
AUDUBON *      RAIN      68  64  88 SE3       29.97F
CLARINDA *       N/A     68  68 100 MISG      29.98R
COUNCIL BLFS * CLOUDY    68  68 100 S6        29.97R
CRESTON *      CLOUDY    68  68 100 SE8       29.99F
HARLAN  *      DRIZZLE   68  68 100 S6        29.99F
LAMONI         RAIN      69  68  96 SE3       30.02F FOG
RED OAK *      CLOUDY    68  68 100 SW8       29.98R
SHENANDOAH *   CLOUDY    68  68 100 S7        29.99R
$$

IAZ047>049-059>061-072>074-084-250800-
   CENTRAL IOWA

CITY           SKY/WX    TMP DP  RH WIND       PRES   REMARKS
AMES           LGT RAIN  68  68 100 S8        29.99F
ANKENY *         N/A    N/A N/A N/A MISG        N/A
BOONE *        LGT RAIN  68  68 100 VRB7      29.99S
CHARITON *       N/A     68  68 100 S6        30.02F
DES MOINES     RAIN      71  69  93 S10       29.96F
GRINNELL*      RAIN      69  67  94 CALM      30.04R
KNOXVILLE *    CLOUDY    70  68  94 SW6       30.00F
MARSHALLTOWN   LGT RAIN  69  69 100 S6        29.99F FOG
NEWTON *       CLOUDY    68  66  94 CALM      30.00F
PELLA *        CLOUDY    68  67  94 CALM      30.03S
PERRY *        LGT RAIN  69  69 100 SE5       29.97F
$$

IAZ004>006-015-016-023>025-035-036-250800-
   NORTH CENTRAL IOWA

CITY           SKY/WX    TMP DP  RH WIND       PRES   REMARKS
ALGONA *       CLOUDY    66  66 100 S9        29.97F
CLARION *      CLOUDY    66  66 100 S8        29.98S
ESTHERVILLE    CLOUDY    66  66 100 S10       29.95S
FORT DODGE *   CLOUDY    66  64  94 SE9       29.98S
MASON CITY     LGT RAIN  67  65  93 S8        29.99S
FOREST CITY *  MOCLDY    64  64 100 S6        29.97F
WEBSTER CITY * CLOUDY    68  68 100 SE8       29.96F
IOWA FALLS *   LGT RAIN  67  66  96 SE5       30.01R
$$

IAZ007>011-017>019-026>030-037>042-050>054-066-250800-
   NORTHEAST IOWA

CITY           SKY/WX    TMP DP  RH WIND       PRES   REMARKS
CEDAR RAPIDS   MOCLDY    69  69 100 E8        30.01F
CHARLES CITY * RAIN      68  68 100 SE13G20   30.00F
CLINTON *      CLOUDY    67  64  90 E9        30.07S
DECORAH *      CLOUDY    66  66 100 VRB7      30.04R
DUBUQUE        PTCLDY    65  63  93 SE14      30.06F
MONTICELLO *   PTCLDY    68  64  88 SE10G17   30.03F
OELWEIN *      CLOUDY    68  66  94 SE6       30.04F FOG
WATERLOO       RAIN      69  67  93 SE14      29.99F FOG
$$

IAZ064-065-067-068-078-250800-
   EAST CENTRAL IOWA

CITY           SKY/WX    TMP DP  RH WIND       PRES   REMARKS
DAVENPORT      CLOUDY    67  65  93 E7        30.06S
IOWA CITY      MOCLDY    71  67  87 E7        30.03F
MT. PLEASANT * CLOUDY    73  68  86 SE5       30.02S
MUSCATINE *    MOCLDY    72  66  83 E5        30.03F
QUAD CITIES    CLOUDY    68  65  90 E8        30.05S
$$

IAZ062-063-075>077-085>089-095>099-250800-
   SOUTHEAST IOWA

CITY           SKY/WX    TMP DP  RH WIND       PRES   REMARKS
BURLINGTON     CLEAR     67  67 100 S5        30.02F
FAIRFIELD *    MOCLDY    72  64  78 SE9       30.00F
FORT MADISON * PTCLDY    73  66  78 S7        30.03F
KEOKUK *       CLOUDY    72  66  83 SE5       30.02S
OSKALOOSA *    LGT RAIN  70  67  91 N5        30.02F
CENTERVILLE *    N/A     72  68  88 CALM      30.03F
OTTUMWA        MOCLDY    74  65  73 CALM      30.01S
WASHINGTON *     N/A    N/A N/A N/A MISG        N/A
$$

ABBREVIATIONS USED IN REMARKS
   TC - TEMPERATURES IN CELSIUS
  WCI - WIND CHILL INDEX
   HX - HEAT INDEX
  VSB - VISIBILITY
$$





USA.gov is the U.S. government's official web portal to all federal, state and local government web resources and services.